Regional Weather Roundup
Issued by NWS

Home | Current Version | Previous Version | Graphics & Text | Print | Product List | Glossary On
Versions: 1 2 3 4 5 6 7 8 9 10 11 12 13 14 15 16 17 18 19 20 21 22 23 24 25 26 27 28 29 30 31 32 33 34 35 36 37 38 39 40 41 42 43 44 45 46 47 48 49 50
000
ASUS43 KLOT 191109
RWRIL

ILLINOIS REGIONAL WEATHER ROUNDUP
NATIONAL WEATHER SERVICE CHICAGO/ROMEOVILLE IL
600 AM CDT THU OCT 19 2017

NOTE: "FAIR" INDICATES FEW OR NO CLOUDS BELOW 12,000 FEET WITH NO
SIGNIFICANT WEATHER AND/OR OBSTRUCTIONS TO VISIBILITY.

* THESE STATIONS ARE NOT UNDER NWS QUALITY CONTROL. THEY ALSO MAY NOT
  REPORT WEATHER SUCH AS PRECIPITATION OR FOG.

ILZ001-002-007-009-015-016-024-191200-
NORTHWEST ILLINOIS

CITY           SKY/WX    TMP DP  RH WIND       PRES   REMARKS
MOLINE         CLEAR     46  44  93 CALM      30.10R
STERLING*      CLOUDY    45  44  97 CALM        N/A
SAVANNA*       CLOUDY    44  44  99 CALM      30.10R FOG
$$

ILZ003-004-008-010-011-017-018-191200-
NORTH CENTRAL ILLINOIS

CITY           SKY/WX    TMP DP  RH WIND       PRES   REMARKS
ROCKFORD       CLOUDY    47  43  86 CALM      30.12R
FREEPORT*      CLOUDY    44  42  93 CALM      30.12R
ROCHELLE*      PTCLDY    42  41  96 CALM      30.10R
DE KALB*       CLOUDY    50  45  81 NW5       30.11R
PERU*          PTCLDY    49  45  85 W5        30.10S
$$

ILZ005-006-012>014-019>023-191200-
NORTHEAST ILLINOIS

CITY           SKY/WX    TMP DP  RH WIND       PRES   REMARKS
CHICAGO-OHARE  PTCLDY    53  46  77 W6        30.08R
CHICAGO-MIDWAY CLOUDY    54  48  80 W8        30.09R
AURORA         CLOUDY    45  43  93 CALM      30.10R
LANSING*       CLEAR     50  47  90 CALM      30.11R
JOLIET*        CLOUDY    48  47  95 CALM      30.10R
WAUKEGAN       CLOUDY    52  45  77 CALM      30.07R
DUPAGE AIRPORT PTCLDY    48  46  93 CALM      30.09R
KANKAKEE*      CLEAR     50  46  84 SW5       30.11R
WHEELING       CLOUDY    54  47  77 SW3       30.09R
MORRIS*        CLOUDY    51  46  84 W6        30.09R
NORTHERLY ISL    N/A     56  46  69 W8          N/A
$$

LMZ740>746-191200-
SOUTHERN LAKE MICHIGAN

STATION/POSITION SKY/WX   TEMP    WIND        PRES    VSBY  WAVE
                          AIR SEA DIR/SP/G                  HT/PER
                          (F)     (DEG/KT/KT) (MB)    (MI)  (FT/S)
SOUTHERN BUOY              59 61  310/ 14/ 16 1017.5R         3/ 5
WILMETTE HARBOR            56 57  250/ 10/ 12   N/A           1/ 2
HARRISON CRIB              58     270/ 14/ 15   N/A
BURNHAM HARBOR             56     250/  6/ 11   N/A
BURNS HARBOR               57     260/ 13/ 19 1019.3R
MICHIGAN CITY              55     210/  7/  9   N/A
MICHIGAN CITY 6N           57 57  240/ 14/ 16   N/A           2/ 4
ST. JOSEPH                 58 58  250/ 14/ 17 1019.0          3/ 5
$$

ILZ025>027-034>036-040-047-049-050-058-095>099-191200-
WEST-CENTRAL ILLINOIS

CITY           SKY/WX    TMP DP  RH WIND       PRES   REMARKS
QUINCY         CLEAR     51  45  79 S9        30.10R
GALESBURG*     CLEAR     44  44 100 CALM      30.12R
MACOMB*        CLEAR     48  45  89 W3        30.12R
JACKSONVILLE*  CLEAR     54  47  77 S8        30.12R
PITTSFIELD*    CLEAR     54  48  80 SW3       30.13R
$$

ILZ028>032-037-038-041>044-048-051>054-059>061-191200-
CENTRAL ILLINOIS

CITY           SKY/WX    TMP DP  RH WIND       PRES   REMARKS
PONTIAC        CLEAR     53  50  90 SW5       30.12R
BLOOMINGTON    CLEAR     51  47  86 SW10      30.13R
DECATUR        CLEAR     52  47  83 SW8       30.14R
PEORIA         CLEAR     51  48  89 S3        30.12R
LACON*         CLEAR     48  45  90 CALM      30.11R
LINCOLN*       CLEAR     49  47  94 CALM      30.12R
SPRINGFIELD    CLEAR     54  49  83 SW8       30.13R
TAYLORVILLE    CLEAR     50  47  89 SW5       30.14R
$$

ILZ033-039-045-046-055>057-062-063-191200-
EAST-CENTRAL ILLINOIS

CITY           SKY/WX    TMP DP  RH WIND       PRES   REMARKS
CHAMPAIGN      CLEAR     48  44  86 S7        30.14R
DANVILLE*      CLEAR     50  46  86 SW7       30.11S
RANTOUL*       CLEAR     50  48  91 SW3       30.13S
MATTOON        CLEAR     52  48  86 S9        30.14R
PARIS*         CLEAR     52  48  85 SW8       30.16R
$$

ILZ079-100>102-191200-
SOUTHWEST ILLINOIS

CITY           SKY/WX    TMP DP  RH WIND       PRES   REMARKS
ALTON          CLEAR     53  48  84 CALM      30.16R
BELLEVILLE     CLEAR     49  46  88 CALM      30.19R
CAHOKIA*       CLEAR     49  45  86 CALM      30.16R
SPARTA*        CLEAR     55  47  72 S6        30.18R
$$

ILZ064>066-069>071-074>076-080>082-084>086-088>090-092>094-191200-
SOUTH-CENTRAL ILLINOIS

CITY           SKY/WX    TMP DP  RH WIND       PRES   REMARKS
CARBONDALE     CLEAR     49  46  90 S6        30.19R
CAIRO*         CLEAR     47  45  95 CALM      30.23R
EFFINGHAM*     CLEAR     51  48  90 S3        30.18S
MARION         CLEAR     51  51  97 S5        30.20S
MT. VERNON     CLEAR     44  43  96 CALM      30.19R
CENTRALIA*     CLEAR     52  48  86 S6        30.17R
SALEM*         CLEAR     53  47  79 S5        30.18R
METROPOLIS*    CLEAR     48  46  95 CALM      30.24R
$$

ILZ067-068-072-073-078-083-087-091-191200-
SOUTHEAST ILLINOIS

CITY           SKY/WX    TMP DP  RH WIND       PRES   REMARKS
LAWRENCEVILLE  CLEAR     49  46  90 S7        30.19S
FLORA*         CLEAR     49  46  91 S5        30.19R
FAIRFIELD*     CLEAR     50  47  88 S3        30.18S
HARRISBURG*    CLEAR     47  45  93 CALM      30.21S
ROBINSON*      CLEAR     49  47  91 S7        30.19R
CARMI*         CLEAR     44  44  99 SE6       30.20S
$$

ABBREVIATIONS USED IN REMARKS
   TC - TEMPERATURE IN CELSIUS
  WCI - WIND CHILL INDEX
   HX - HEAT INDEX
  VSB - VISIBILITY
$$





USA.gov is the U.S. government's official web portal to all federal, state and local government web resources and services.